Time[GMT],current_u[cm/s](10m),current_v[cm/s](10m),current_u[cm/s](14m),current_v[cm/s](14m),current_u[cm/s](18m),current_v[cm/s](18m),current_u[cm/s](22m),current_v[cm/s](22m),current_u[cm/s](26m),current_v[cm/s](26m),current_u[cm/s](30m),current_v[cm/s](30m),current_u[cm/s](34m),current_v[cm/s](34m),current_u[cm/s](38m),current_v[cm/s](38m),current_u[cm/s](42m),current_v[cm/s](42m),current_u[cm/s](46m),current_v[cm/s](46m),current_u[cm/s](50m),current_v[cm/s](50m),current_u[cm/s](54m),current_v[cm/s](54m),current_u[cm/s](58m),current_v[cm/s](58m),current_u[cm/s](62m),current_v[cm/s](62m),current_u[cm/s](66m),current_v[cm/s](66m),current_u[cm/s](70m),current_v[cm/s](70m),current_u[cm/s](74m),current_v[cm/s](74m),current_u[cm/s](78m),current_v[cm/s](78m),current_u[cm/s](82m),current_v[cm/s](82m),current_u[cm/s](86m),current_v[cm/s](86m),current_u[cm/s](90m),current_v[cm/s](90m)
2008-04-21 20:00,-10.80,-14.28,-9.88,-17.97,-10.53,-10.02,-7.77,-6.04,-7.67,-5.69,-7.36,-2.25,-6.31,-0.57,-3.68,-1.65,-3.15,-3.37,-5.09,-4.90,-7.41,-5.19,-7.64,-4.43,-6.32,-3.61,-3.76,-3.45,-2.49,-4.52,-2.06,-6.59,-1.62,-7.71,-1.50,-8.09,-1.99,-7.51,-2.09,-7.54,-1.55,-4.86
2008-04-21 21:00,-10.87,-16.08,-10.99,-18.10,-6.03,-8.33,-5.60,-4.95,-3.47,-4.72,-4.19,-0.65,-2.80,0.61,-1.71,-1.25,-1.06,-3.36,-0.68,-4.60,-1.59,-4.04,-1.00,-1.87,1.01,1.15,1.47,-0.70,-0.16,-5.28,-0.51,-5.18,-0.53,-6.12,-1.62,-6.67,-2.21,-6.11,-1.29,-4.68,0.28,-2.63
2008-04-21 22:00,-14.60,-10.74,-17.10,-9.73,-10.38,-5.37,-7.62,-2.43,-5.62,-0.78,-3.90,0.79,-1.58,2.76,0.50,2.45,1.68,0.31,1.99,-1.38,1.77,-1.34,2.53,2.66,4.72,6.78,2.77,0.85,0.79,-3.63,2.35,-3.25,3.81,-1.87,2.94,-1.40,2.32,0.29,2.47,1.17,2.75,2.62
2008-04-21 23:00,-13.99,2.31,-11.17,3.70,-6.72,6.94,-5.78,7.96,-2.01,9.32,2.23,7.06,4.91,5.16,6.75,4.26,5.01,4.14,3.94,4.55,3.44,7.22,2.57,8.00,2.84,7.14,-0.16,4.97,-2.53,1.11,-1.58,0.04,0.24,0.91,2.28,2.47,3.12,4.51,3.10,5.24,3.27,4.35
2008-04-22 00:00,,,,,,,,,,,,,,,,,,,,,,,,,,,,,,,,,,,,,,,,,,
2008-04-22 01:00,-17.27,12.71,-18.42,12.36,-14.32,11.94,-9.60,10.87,-5.87,10.65,-3.60,7.68,-1.28,4.52,-1.08,2.18,-0.72,0.30,-0.61,-0.40,0.02,1.99,-0.26,3.58,-1.49,3.52,-2.52,1.74,-3.72,1.90,-3.63,1.61,-4.07,1.68,-4.36,1.60,-3.70,1.48,-2.50,3.73,-0.79,4.99
2008-04-22 02:00,-16.34,7.97,-14.82,8.12,-14.54,9.25,-10.85,10.17,-5.73,7.45,-3.33,3.37,-3.11,-0.43,-2.45,-3.26,-3.73,-3.86,-3.89,-3.70,-5.25,-3.70,-5.17,-4.30,-4.34,-5.30,-4.71,-4.79,-5.01,-4.14,-4.89,-3.17,-3.48,-2.63,-1.82,-1.92,-1.78,-1.70,-0.83,-1.40,-1.22,0.57
2008-04-22 03:00,-16.66,18.23,-15.98,18.75,-15.08,18.19,-15.58,18.14,-13.93,17.18,-11.33,14.83,-8.16,12.67,-5.62,6.75,-5.11,1.68,-7.21,-1.37,-9.47,-1.85,-9.53,-1.66,-9.05,-2.56,-9.14,-2.59,-7.81,-1.13,-6.55,-0.12,-5.34,1.40,-3.78,0.73,-3.73,1.26,-3.33,0.97,-3.06,0.42
2008-04-22 04:00,-12.21,10.18,-16.67,9.02,-18.72,9.23,-14.65,8.59,-12.65,7.53,-10.91,3.88,-10.79,-1.31,-11.92,-3.75,-12.68,-3.67,-13.64,-3.96,-15.58,-3.09,-16.79,-2.20,-15.69,-2.39,-14.75,-0.33,-12.71,1.55,-11.06,0.59,-9.71,-1.40,-8.81,-1.96,-7.56,-1.27,-7.28,1.23,-5.82,2.61
2008-04-22 05:00,-11.26,1.26,-11.05,2.27,-12.83,1.62,-14.82,3.31,-14.73,3.03,-14.58,0.14,-13.41,-3.68,-13.83,-5.38,-16.10,-4.82,-17.58,-4.75,-16.87,-4.32,-15.52,-4.64,-14.21,-5.18,-11.87,-5.30,-10.57,-4.07,-9.43,-5.08,-8.64,-7.66,-8.42,-7.70,-8.73,-8.73,-8.84,-8.35,-8.51,-7.73
2008-04-22 06:00,-10.60,-6.38,-14.54,-7.16,-15.92,-5.39,-16.92,-3.81,-16.74,-2.71,-17.74,-6.26,-17.63,-9.36,-18.50,-9.94,-17.40,-9.09,-16.18,-6.93,-14.38,-7.01,-13.53,-8.42,-12.80,-9.77,-13.01,-9.10,-12.15,-8.84,-11.36,-9.02,-10.98,-8.90,-10.33,-8.28,-10.21,-8.35,-8.96,-7.97,-8.13,-7.61
2008-04-22 07:00,-6.54,-13.50,-10.21,-11.07,-12.15,-9.15,-12.76,-5.47,-12.13,-5.49,-14.17,-7.68,-14.40,-7.96,-15.32,-6.67,-14.31,-5.53,-10.64,-5.55,-10.18,-7.40,-10.13,-8.95,-10.44,-10.30,-9.85,-11.90,-7.86,-11.92,-7.50,-11.39,-6.68,-10.30,-5.44,-9.92,-4.03,-9.39,-3.57,-9.87,-1.86,-11.02
2008-04-22 08:00,-9.61,-18.83,-9.95,-9.53,-10.89,-6.47,-11.33,-7.75,-13.26,-5.20,-12.63,-4.18,-13.04,-4.20,-12.45,-3.39,-8.95,-2.53,-5.92,-2.86,-6.48,-4.80,-7.68,-6.01,-9.02,-7.78,-7.23,-9.53,-4.81,-10.25,-2.73,-7.84,-1.58,-7.49,-0.72,-7.23,0.04,-7.31,2.04,-7.01,4.47,-5.74
2008-04-22 09:00,,,,,,,,,,,,,,,,,,,,,,,,,,,,,,,,,,,,,,,,,,
2008-04-22 10:00,-11.60,-10.97,-5.91,-11.11,-2.13,-9.12,1.49,-7.28,2.39,-8.16,1.19,-6.96,-1.70,-4.70,-0.85,-5.07,-0.51,-7.58,-1.10,-8.70,-0.75,-4.73,-0.81,-2.13,0.21,-3.07,1.33,-3.67,4.36,-4.00,5.39,-5.67,4.79,-7.11,4.32,-6.94,3.02,-5.77,3.10,-3.97,4.16,-0.61
2008-04-22 11:00,-10.47,-12.61,-7.36,-10.82,-3.83,-9.01,-2.46,-12.15,-1.72,-9.42,0.24,-7.98,1.50,-5.92,-0.07,-3.89,-0.25,-3.63,0.55,-2.13,-1.33,-0.09,-0.35,0.10,1.62,-0.86,2.86,-1.84,1.27,-3.48,2.03,-4.92,2.64,-4.53,3.49,-4.58,4.56,-4.99,5.67,-3.50,6.70,-2.76
2008-04-22 12:00,-11.23,-3.96,-6.42,-2.28,-1.67,-2.08,-1.31,-4.27,-1.09,-1.90,-1.05,1.04,0.49,3.18,1.19,4.65,1.98,7.19,3.69,8.45,5.27,8.41,4.99,7.28,4.69,5.20,5.53,3.47,3.86,1.39,4.30,-0.04,4.94,0.26,6.03,-0.56,6.61,-1.43,7.75,-1.40,8.84,-0.54
2008-04-22 13:00,-15.63,3.59,-11.88,6.72,-9.36,5.30,-9.25,4.60,-7.83,2.00,-7.50,2.31,-6.62,5.92,-4.04,9.12,-1.81,9.69,2.16,9.34,1.86,9.66,1.25,8.22,2.22,6.43,3.01,4.16,4.02,2.59,4.83,0.95,5.12,-0.00,5.86,0.33,6.20,2.63,6.40,4.05,5.52,5.56
2008-04-22 14:00,-20.15,5.03,-15.16,5.82,-13.14,7.07,-16.07,11.51,-12.76,10.95,-11.29,8.89,-10.00,10.12,-8.12,8.08,-4.73,8.28,-1.54,6.74,-0.51,4.76,0.57,3.94,1.74,4.92,1.52,4.96,0.44,3.69,0.08,2.12,0.69,1.15,1.00,0.83,1.03,0.73,2.23,0.58,2.75,-0.10
2008-04-22 15:00,-18.82,-1.36,-17.10,0.52,-10.23,4.72,-12.06,8.34,-13.67,8.79,-14.10,9.18,-13.17,12.29,-9.36,10.10,-4.18,6.15,-1.71,3.87,-0.71,3.34,-0.92,0.97,-1.66,-0.72,-1.68,-1.35,0.58,-1.91,1.20,-2.56,1.02,-2.30,0.85,-1.41,0.83,0.36,0.70,0.11,-0.62,1.69
2008-04-22 16:00,-20.34,3.61,-19.49,2.20,-10.35,4.78,-14.01,8.89,-16.52,9.90,-17.63,11.13,-14.57,11.75,-12.18,10.08,-10.71,8.02,-9.15,5.99,-6.39,3.80,-4.63,0.78,-3.73,-2.50,-4.26,-3.50,-4.50,-1.69,-4.51,-2.01,-6.94,-1.60,-6.73,-2.27,-5.73,-2.80,-5.01,-1.74,-3.97,-0.69
2008-04-22 17:00,,,,,,,,,,,,,,,,,,,,,,,,,,,,,,,,,,,,,,,,,,
2008-04-22 18:00,-25.95,-0.30,-26.61,2.22,-17.87,2.69,-15.93,0.46,-17.84,1.24,-19.06,1.81,-16.36,-0.19,-15.42,-3.25,-13.03,-3.56,-11.10,-4.75,-10.92,-6.69,-12.01,-8.27,-12.72,-6.61,-13.36,-2.83,-15.34,-2.49,-14.74,-5.13,-13.27,-6.88,-12.28,-3.96,-11.50,0.67,-11.61,3.77,-11.91,4.41
2008-04-22 19:00,-17.00,-3.21,-17.04,0.33,-11.57,3.99,-9.64,0.40,-10.67,-1.69,-11.75,-0.56,-8.90,-0.63,-6.34,-1.83,-6.80,-5.11,-7.54,-7.85,-8.94,-9.74,-8.84,-9.39,-7.90,-7.33,-8.14,-6.57,-9.20,-4.80,-9.01,-4.74,-8.17,-6.47,-7.03,-5.39,-5.63,-2.45,-3.60,-0.89,-2.69,-0.09
2008-04-22 20:00,-9.05,-7.68,-12.52,-3.51,-8.97,1.96,-7.22,-1.69,-8.57,-3.77,-8.27,-5.46,-5.60,-5.27,-3.71,-5.32,-2.72,-8.88,-4.35,-12.10,-5.50,-13.81,-5.71,-13.14,-2.69,-8.98,-2.67,-4.27,-3.67,-5.10,-2.20,-8.20,-0.56,-8.43,1.16,-7.91,1.03,-4.39,1.41,-3.23,2.87,-4.25
2008-04-22 21:00,-9.82,0.66,-12.81,3.93,-10.07,8.32,-16.30,4.74,-11.85,3.18,-9.24,2.51,-6.40,2.12,-2.49,1.64,-3.13,-0.02,-4.50,-0.33,-5.91,-1.18,-6.97,-1.82,-8.44,-2.16,-6.59,0.70,-2.43,7.62,-2.16,9.80,-2.70,5.76,-0.71,4.38,0.53,4.76,1.35,4.49,2.76,5.34
2008-04-22 22:00,-12.19,-2.89,-13.57,1.29,-12.01,6.79,-16.60,4.02,-13.90,3.38,-7.96,0.39,-3.49,-1.59,-0.29,-2.81,-2.33,-3.33,-3.52,-1.81,-6.92,0.39,-7.53,1.36,-6.39,1.08,-4.01,0.45,-2.32,2.11,-1.71,4.91,-2.25,3.60,-2.30,0.34,-2.26,-1.84,-2.13,-1.59,-2.48,-0.44
2008-04-22 23:00,-11.07,-1.08,-10.09,5.28,-7.12,9.95,-6.86,1.25,-3.72,0.54,-1.46,-0.34,-0.69,-3.56,0.22,-6.52,1.15,-7.18,0.10,-6.14,-0.04,-4.30,-1.55,-1.42,-2.95,-0.27,-2.17,-0.77,-1.82,-3.28,-0.73,-3.78,1.84,-0.90,4.03,2.90,3.21,3.18,1.69,1.67,0.21,2.05
2008-04-23 00:00,,,,,,,,,,,,,,,,,,,,,,,,,,,,,,,,,,,,,,,,,,
2008-04-23 01:00,,,,,,,,,,,,,,,,,,,,,,,,,,,,,,,,,,,,,,,,,,
2008-04-23 02:00,-11.56,12.15,-7.03,16.15,-6.58,19.11,-6.64,17.63,-7.20,15.68,-7.45,13.09,-8.88,10.57,-9.03,8.32,-9.96,7.94,-8.73,7.68,-7.91,7.41,-5.98,7.58,-4.04,8.07,-3.88,7.91,-3.82,8.04,-3.88,7.91,-4.69,7.14,-4.04,6.71,-2.33,5.56,-0.83,4.77,0.96,4.37
2008-04-23 03:00,,,,,,,,,,,,,,,,,,,,,,,,,,,,,,,,,,,,,,,,,,
2008-04-23 04:00,-10.86,9.54,-7.52,9.20,-7.94,8.87,-11.93,7.23,-12.94,6.08,-14.56,4.54,-13.49,3.41,-11.24,4.62,-10.90,5.56,-9.97,6.26,-9.33,6.56,-9.18,6.08,-9.09,4.75,-8.35,5.08,-7.38,3.28,-6.87,0.93,-6.91,-0.65,-6.30,-0.25,-5.18,0.51,-5.33,1.72,-6.71,1.09
2008-04-23 05:00,-15.64,5.67,-10.37,4.15,-8.36,5.81,-12.37,6.26,-13.80,7.18,-14.39,6.37,-13.87,7.05,-12.53,8.82,-11.43,8.32,-8.57,7.84,-6.37,7.15,-5.44,6.18,-6.00,5.59,-6.27,4.78,-6.79,3.05,-6.89,1.34,-6.59,0.70,-6.56,0.61,-5.53,0.30,-5.83,0.94,-6.25,1.96
2008-04-23 06:00,-15.52,0.48,-13.94,-2.28,-13.51,2.46,-13.50,2.77,-13.11,4.57,-11.89,4.00,-12.56,4.84,-11.62,5.86,-10.09,5.28,-7.84,4.09,-5.52,3.33,-4.21,3.84,-4.28,2.04,-4.66,-0.48,-3.98,-3.41,-4.87,-4.94,-4.13,-4.61,-3.17,-4.00,-2.92,-3.09,-2.74,-3.35,-2.29,-3.11
2008-04-23 07:00,-22.01,-7.36,-16.59,-11.76,-13.32,-8.78,-14.71,-4.91,-14.03,-3.03,-11.64,-2.30,-9.04,-0.88,-8.57,-1.05,-7.17,-2.19,-7.19,-5.23,-6.35,-7.27,-6.19,-8.48,-6.48,-11.29,-5.96,-14.37,-5.70,-15.55,-4.83,-14.65,-2.70,-14.42,-2.11,-14.97,-2.45,-15.91,-2.21,-16.05,-0.64,-15.36
2008-04-23 08:00,-13.04,-16.53,-5.62,-19.60,-3.71,-20.69,-7.64,-17.08,-9.52,-12.64,-9.64,-8.49,-9.81,-5.20,-7.50,-3.86,-5.03,-2.69,-1.77,-1.06,-0.27,0.54,-1.91,-0.58,-2.56,-1.20,-3.83,-3.89,-4.68,-6.24,-5.30,-6.95,-5.60,-6.31,-4.88,-6.62,-4.26,-7.26,-4.86,-8.39,-5.14,-9.52
2008-04-23 09:00,-10.09,-16.26,-7.18,-20.29,-7.43,-15.03,-9.44,-10.52,-8.74,-8.01,-5.85,-5.14,-3.50,-3.27,-1.76,-3.47,-1.17,-2.66,0.78,-0.49,1.83,1.19,1.80,1.28,2.59,-0.25,1.60,-1.81,1.50,-2.16,0.72,-3.02,-0.79,-3.90,-0.77,-5.36,-2.23,-5.70,-1.57,-5.81,-0.36,-5.34
2008-04-23 10:00,-18.72,-8.55,-12.69,-10.47,-6.30,-7.78,-8.26,-7.54,-10.00,-5.25,-6.64,-2.55,-3.05,-1.66,-2.06,-2.83,-0.63,-3.75,0.72,-3.02,2.19,-3.41,2.37,-5.34,2.85,-11.05,4.24,-14.91,5.43,-15.70,5.41,-13.93,5.53,-12.95,5.49,-11.81,6.21,-11.07,6.93,-10.01,6.22,-8.03
2008-04-23 11:00,-10.47,-2.68,-7.42,-3.10,-1.14,-2.76,-4.63,-9.15,-6.69,-8.22,-6.54,-4.61,-6.39,-1.33,-4.97,1.20,-1.59,0.77,1.75,-0.93,3.77,-2.40,5.38,-4.94,5.58,-5.61,4.89,-6.77,4.63,-8.31,4.38,-10.90,3.87,-12.31,5.21,-11.90,6.34,-10.82,8.42,-9.76,10.03,-8.86
2008-04-23 12:00,-13.21,4.22,-12.04,1.76,-8.55,-1.46,-11.95,-3.65,-12.28,-2.92,-10.83,0.87,-9.93,3.76,-5.75,5.14,-0.87,4.55,2.04,0.52,3.89,-1.43,3.80,-2.50,3.58,-2.15,4.11,-2.51,3.71,-2.21,3.16,-2.48,1.72,-2.19,1.50,-3.20,2.98,-4.63,5.00,-5.06,7.11,-5.46
2008-04-23 13:00,-15.35,4.72,-13.58,3.38,-10.48,0.77,-12.22,2.01,-12.23,7.87,-8.50,9.32,-4.29,10.61,-1.16,11.67,3.66,10.95,5.66,10.20,5.13,8.89,4.34,6.66,3.29,3.62,1.52,3.92,1.09,4.31,-0.04,3.54,-0.22,2.44,0.23,0.28,0.18,-0.57,0.94,-1.70,2.37,-2.62
2008-04-23 14:00,-9.09,13.32,-8.33,10.84,-4.11,10.04,-6.53,13.48,-7.39,13.22,-7.47,13.82,-6.88,14.63,-3.94,15.63,1.52,13.85,5.31,11.03,5.00,10.31,5.30,9.67,6.42,8.76,7.32,8.20,6.96,7.67,6.61,6.41,4.28,6.54,3.07,7.74,3.24,8.21,3.52,9.34,3.75,10.66
2008-04-23 15:00,-19.98,4.45,-16.99,3.59,-9.19,6.81,-15.85,6.34,-16.13,6.57,-13.58,8.50,-11.54,7.98,-9.35,6.66,-8.44,5.37,-5.95,3.72,-7.46,1.48,-4.91,-0.35,-3.95,-1.10,-3.19,-0.87,-1.18,-1.62,0.09,-1.65,0.09,-1.65,-1.67,-1.03,-2.40,-0.00,-2.77,-0.53,-3.21,0.59
2008-04-23 16:00,-20.81,5.14,-17.04,4.10,-9.94,3.44,-17.67,8.19,-16.13,10.02,-14.41,10.55,-9.76,8.31,-7.24,5.21,-6.97,4.67,-6.97,2.26,-5.27,0.48,-3.56,-0.67,-3.29,-1.21,-3.63,0.25,-4.33,1.50,-3.17,1.12,0.33,1.67,3.54,1.08,2.99,0.49,0.66,0.93,-1.01,1.26
2008-04-23 17:00,-24.20,1.18,-19.11,2.31,-7.65,4.15,-16.85,7.92,-19.84,7.42,-19.45,7.54,-16.86,7.60,-12.65,3.76,-12.13,2.04,-12.92,1.91,-12.36,1.76,-10.59,0.42,-10.92,-1.56,-9.93,-2.41,-8.61,-0.23,-6.53,0.83,-5.17,0.83,-5.03,1.39,-5.39,1.91,-5.31,2.66,-4.26,2.99
2008-04-23 18:00,-22.54,2.94,-17.22,3.31,-6.88,5.74,-14.92,8.09,-15.96,7.04,-15.65,6.72,-14.83,6.45,-11.64,2.51,-12.19,-0.49,-12.50,0.88,-13.46,0.59,-10.94,0.21,-8.43,-0.48,-7.55,-0.95,-5.27,-0.88,-4.30,-1.00,-5.68,-0.59,-6.61,1.11,-5.80,3.25,-4.48,4.38,-2.68,5.35
2008-04-23 19:00,-23.77,-0.57,-19.67,1.41,-11.10,2.78,-18.43,3.15,-18.55,1.86,-17.86,1.65,-14.94,0.98,-12.57,-0.29,-13.24,-3.21,-13.97,-4.58,-13.01,-5.34,-10.27,-5.75,-5.26,-6.73,-4.84,-7.44,-5.29,-7.68,-5.48,-8.06,-7.59,-7.65,-9.22,-9.51,-8.92,-10.15,-6.15,-7.94,-4.22,-6.73
2008-04-23 20:00,-24.00,-5.98,-18.89,-3.89,-9.44,-1.95,-9.96,-1.27,-11.30,-1.68,-13.04,-1.48,-12.74,-2.12,-12.02,-6.18,-13.87,-8.00,-13.28,-7.51,-12.27,-6.37,-12.21,-6.24,-10.61,-6.69,-8.56,-6.90,-7.22,-6.81,-7.82,-7.93,-8.80,-9.17,-7.86,-9.51,-6.19,-9.52,-3.46,-9.21,-2.16,-9.02
2008-04-23 21:00,-22.89,-5.85,-15.83,-2.96,-7.23,-0.64,-8.21,-1.88,-8.56,-3.14,-7.38,-5.29,-7.57,-6.71,-7.16,-5.32,-8.35,-2.45,-6.96,-2.55,-4.66,-2.89,-3.06,-3.34,-4.10,-3.35,-3.58,-4.02,-1.23,0.25,1.42,2.53,2.57,0.16,3.71,-2.21,2.38,-4.71,0.19,-5.07,-1.41,-3.25
2008-04-23 22:00,-14.32,-8.56,-15.71,-0.62,-12.31,-0.10,-6.77,-1.13,-5.87,0.40,-4.82,-0.64,-4.30,-1.00,-4.25,-2.87,-3.71,-3.96,-1.73,-2.20,0.67,0.20,2.75,3.66,5.26,5.37,7.10,4.47,5.88,2.32,5.80,1.56,5.39,1.86,5.24,0.98,3.63,0.79,3.86,1.39,3.68,3.01
2008-04-23 23:00,,,,,,,,,,,,,,,,,,,,,,,,,,,,,,,,,,,,,,,,,,
2008-04-24 00:00,,,,,,,,,,,,,,,,,,,,,,,,,,,,,,,,,,,,,,,,,,
2008-04-24 01:00,-21.88,5.55,-16.62,9.56,-9.12,8.61,-7.27,3.95,-4.72,5.88,-5.85,5.11,-5.53,5.42,-4.79,4.39,-2.80,3.01,-1.72,3.24,-0.22,2.76,-0.01,0.73,0.54,-1.09,0.50,-1.31,0.11,-0.70,-0.35,1.15,-0.31,0.32,2.21,-0.06,3.58,1.30,4.67,2.16,4.36,2.17
2008-04-24 02:00,-20.82,9.95,-17.66,9.55,-15.11,9.08,-14.75,5.84,-14.72,6.06,-14.20,9.15,-11.81,8.52,-9.59,8.78,-8.21,9.41,-5.57,7.60,-4.38,5.77,-3.98,5.48,-3.16,5.20,-3.82,4.27,-3.02,3.05,-3.98,4.12,-1.96,3.69,-0.41,2.70,1.01,2.51,1.46,2.75,-0.10,3.74
2008-04-24 03:00,-17.88,9.91,-15.48,10.95,-14.50,8.43,-15.14,4.36,-16.74,1.05,-16.54,1.43,-15.87,2.99,-14.90,4.96,-12.95,4.72,-10.62,4.28,-8.10,3.59,-5.42,0.96,-4.26,-0.78,-3.06,-0.94,-3.88,0.38,-2.87,0.17,-2.56,0.16,-2.04,-0.52,-1.70,0.42,-1.35,1.68,-0.52,2.04
2008-04-24 04:00,-16.34,9.33,-18.10,6.18,-17.65,5.06,-21.51,1.27,-22.69,-1.71,-22.59,-1.36,-21.33,0.69,-19.89,1.45,-18.82,2.40,-17.27,2.77,-15.56,2.67,-12.85,3.39,-9.47,2.23,-8.51,0.12,-7.88,-1.57,-7.05,-2.26,-7.23,-2.00,-7.89,-3.25,-7.76,-3.00,-8.97,-2.12,-8.03,-2.46
2008-04-24 05:00,-17.83,5.63,-20.41,3.48,-17.00,5.68,-19.91,5.94,-19.13,6.49,-18.71,7.14,-17.57,8.22,-16.41,9.20,-17.69,9.96,-16.84,8.55,-14.80,6.67,-12.93,5.35,-11.95,4.19,-11.29,2.72,-11.51,2.76,-10.68,3.11,-8.78,1.71,-6.02,-0.48,-3.83,-2.53,-4.03,-4.26,-4.14,-4.93
2008-04-24 06:00,-14.77,3.85,-16.06,0.21,-16.93,0.99,-15.26,-0.38,-15.55,0.58,-15.25,2.34,-13.96,3.58,-11.25,5.34,-11.01,4.89,-11.91,3.05,-10.83,2.23,-8.33,-0.46,-6.68,-2.77,-6.27,-4.11,-6.96,-5.27,-7.60,-5.57,-7.49,-5.95,-6.15,-6.90,-5.69,-6.34,-5.14,-6.80,-5.06,-6.36
2008-04-24 07:00,-24.97,-5.54,-21.28,-5.98,-17.86,-3.47,-18.09,-3.44,-17.35,-2.06,-14.79,0.50,-12.31,-0.10,-11.28,0.63,-12.71,-1.17,-11.84,-4.04,-11.71,-6.51,-12.61,-8.35,-11.60,-9.61,-10.78,-9.88,-10.61,-10.46,-9.43,-10.20,-8.72,-11.14,-7.44,-11.58,-6.45,-11.38,-6.12,-12.12,-3.93,-10.40
2008-04-24 08:00,-19.63,-5.58,-18.22,-6.41,-14.29,-4.58,-14.88,-5.70,-14.32,-4.80,-13.69,-3.45,-10.61,-3.25,-8.24,-4.51,-9.28,-5.56,-10.58,-5.75,-10.02,-7.25,-7.95,-9.23,-7.17,-10.77,-6.85,-13.18,-6.54,-14.86,-6.56,-15.81,-5.16,-16.64,-4.71,-17.44,-3.78,-17.05,-2.56,-13.85,-1.02,-11.71
2008-04-24 09:00,-3.75,-6.90,-9.88,-9.40,-12.74,-9.65,-11.36,-9.02,-11.95,-11.18,-11.87,-12.83,-11.13,-12.50,-9.02,-11.54,-7.63,-10.28,-4.70,-10.64,-4.26,-12.39,-5.13,-12.97,-5.49,-13.18,-5.07,-12.84,-4.99,-12.40,-5.65,-12.29,-7.26,-13.20,-8.59,-14.65,-9.18,-15.46,-6.71,-15.33,-3.62,-11.77
2008-04-24 10:00,-6.23,-11.11,-7.12,-8.87,-6.19,-5.76,-10.10,-5.60,-10.30,-5.97,-10.15,-6.14,-7.49,-5.95,-6.03,-6.97,-4.33,-7.39,-2.20,-8.20,-0.84,-9.56,-0.72,-9.63,-1.67,-9.92,-2.09,-12.66,-2.73,-15.68,-1.39,-19.04,0.48,-21.08,1.68,-20.19,2.19,-18.78,2.97,-16.56,2.90,-12.92
2008-04-24 11:00,-10.35,-5.15,-11.13,-2.25,-9.87,-1.24,-13.33,-2.92,-12.60,-1.87,-12.07,-0.55,-9.45,-2.26,-6.87,-3.88,-4.97,-3.92,-3.52,-5.26,-3.99,-5.40,-3.99,-6.45,-4.38,-6.88,-1.79,-8.18,0.13,-10.00,1.00,-10.46,0.60,-11.21,-0.27,-9.70,-0.01,-6.80,1.41,-3.23,3.02,-0.65
2008-04-24 12:00,-5.78,-6.06,-6.21,-3.99,-4.16,-0.75,-7.74,0.35,-9.55,0.11,-8.68,-0.67,-5.64,1.00,-5.50,1.56,-2.98,-1.54,0.21,-4.43,1.58,-6.52,2.75,-7.63,1.27,-7.56,0.42,-8.55,0.21,-9.24,0.77,-8.34,1.85,-7.07,3.49,-4.58,3.43,-3.34,3.06,-1.78,3.72,-1.58
2008-04-24 13:00,-10.87,1.70,-9.03,4.56,-4.33,9.03,-5.22,9.91,-3.47,10.65,-2.23,13.12,-1.46,15.03,-0.29,12.57,0.00,8.89,1.64,6.25,3.87,1.71,4.06,0.40,3.21,0.77,2.90,-0.58,3.07,-2.51,4.58,-2.99,5.66,-2.77,5.80,-0.84,6.17,1.36,5.92,2.54,5.84,3.14
2008-04-24 14:00,-7.84,6.49,-6.78,9.85,-2.30,9.23,-2.45,10.75,-2.11,13.05,-0.51,12.60,0.49,10.71,1.19,9.78,1.35,8.25,2.07,6.91,3.35,4.79,3.53,2.13,2.94,1.00,1.73,0.84,2.13,0.23,1.34,-0.63,1.73,-0.52,2.54,0.57,4.77,1.15,5.83,1.78,6.52,2.62
2008-04-24 15:00,-17.21,6.35,-12.60,8.38,-4.96,3.92,-6.32,9.05,-5.22,8.86,-4.80,6.79,-4.48,4.38,-4.55,3.94,-5.45,2.10,-4.79,-0.42,-4.94,-1.30,-4.35,-0.81,-2.96,1.81,-3.01,3.68,-3.24,4.45,-3.70,3.89,-4.46,3.97,-3.95,4.02,-2.06,5.02,-0.73,6.16,-0.42,6.15
2008-04-24 16:00,-15.50,11.36,-9.35,14.50,-6.14,5.03,-7.27,11.48,-7.03,12.39,-10.05,10.63,-8.26,6.15,-7.82,3.68,-10.45,4.44,-10.74,2.99,-9.65,0.08,-7.90,-0.85,-5.67,1.09,-5.22,2.69,-5.48,3.55,-6.71,3.81,-7.47,3.57,-6.74,3.59,-6.93,3.53,-7.09,4.73,-6.22,5.63
2008-04-24 17:00,-22.74,6.33,-14.27,5.99,-8.01,-2.87,-7.28,6.03,-11.32,7.94,-11.52,6.20,-11.46,4.65,-11.46,2.25,-11.23,-0.19,-11.61,-1.35,-11.51,-2.37,-11.15,-3.20,-10.12,-2.47,-9.44,-1.95,-7.76,-3.00,-7.26,-4.31,-7.13,-4.38,-6.65,-2.87,-4.47,-0.43,-4.64,1.51,-6.12,1.89
2008-04-24 18:00,-26.77,5.83,-17.29,1.82,-11.90,-5.21,-15.00,2.21,-16.29,2.65,-19.13,1.68,-18.73,-0.29,-17.66,-1.74,-17.18,-2.64,-15.74,-2.20,-13.90,-0.70,-11.25,0.53,-9.37,0.90,-7.30,0.28,-5.62,0.27,-5.00,-0.06,-4.20,-0.97,-4.99,-2.15,-4.02,-3.95,-3.13,-3.78,-2.32,-0.61
2008-04-24 19:00,-18.43,14.44,-16.04,7.33,-7.24,0.09,-13.55,2.24,-15.81,1.44,-17.10,1.88,-16.14,0.82,-17.57,0.69,-16.77,1.15,-15.28,2.44,-14.74,2.71,-13.18,1.72,-10.34,-0.03,-7.79,0.86,-7.49,2.62,-6.34,4.33,-4.53,4.89,-4.13,1.87,-4.81,-0.01,-5.40,-0.81,-4.89,-1.81
2008-04-24 20:00,-22.78,-3.83,-15.29,-9.17,-7.68,-8.73,-13.33,-7.00,-15.78,-7.23,-17.72,-6.36,-16.54,-5.06,-16.03,-3.65,-14.74,-2.41,-13.60,-1.34,-12.24,-1.02,-11.69,-1.80,-10.25,-2.72,-7.86,-4.39,-5.79,-5.01,-4.98,-6.96,-5.57,-5.05,-6.62,-2.97,-5.00,-7.59,-4.31,-14.28,-3.07,-16.63
2008-04-24 21:00,-6.84,-7.74,-8.98,-4.84,-3.68,-6.77,-1.62,-6.67,-1.94,-10.42,-1.96,-12.73,-3.15,-11.94,-4.67,-10.73,-6.97,-7.99,-8.17,-6.47,-6.88,-5.55,-4.91,-4.12,-6.40,-0.28,-6.98,2.99,-5.40,3.99,-4.40,1.06,-3.09,-3.24,-0.63,-6.15,-0.16,-9.04,-0.47,-11.12,-0.60,-12.42
2008-04-24 22:00,-14.63,-5.83,-11.25,-9.71,-8.48,-13.99,-8.20,-11.50,-9.35,-8.40,-10.93,-7.00,-10.81,-6.02,-11.03,-5.99,-9.79,-5.61,-8.35,-3.81,-5.04,-3.01,-2.75,-2.62,-2.35,-1.55,-2.70,3.36,-3.37,3.15,-2.81,-3.47,-1.95,-6.97,-0.40,-9.64,0.92,-11.22,1.51,-11.77,1.56,-9.88
2008-04-24 23:00,-10.92,-3.97,-9.95,-5.76,-5.03,-8.86,-4.70,-10.95,-5.19,-12.78,-4.11,-12.55,-4.88,-10.38,-4.86,-8.39,-2.36,-7.00,-2.02,-5.01,-1.87,-2.77,-2.37,-0.10,0.28,2.18,2.21,4.75,2.25,3.93,0.74,0.33,0.18,-2.98,1.21,-3.29,1.68,-4.82,1.27,-4.84,0.60,-4.00
2008-04-25 01:00,,,,,,,,,,,,,,,,,,,,,,,,,,,,,,,,,,,,,,,,,,
2008-04-25 02:00,,,,,,,,,,,,,,,,,,,,,,,,,,,,,,,,,,,,,,,,,,
2008-04-25 03:00,-11.37,13.25,-8.95,12.85,-9.37,8.43,-10.76,7.48,-13.85,5.28,-13.70,6.16,-12.82,7.06,-11.23,7.65,-8.73,9.04,-5.98,8.63,-3.60,8.00,-1.93,7.67,-1.14,6.13,-1.07,5.21,-0.38,5.01,-1.26,4.11,-1.27,3.48,-2.00,2.11,-2.34,1.48,-1.86,1.63,-0.43,1.75
2008-04-25 04:00,-5.34,16.77,-3.70,17.59,-5.79,15.17,-7.76,14.78,-10.05,11.67,-11.27,10.88,-11.81,12.28,-9.31,13.36,-6.46,12.25,-4.95,10.72,-3.92,9.05,-3.06,9.31,-1.83,9.06,-0.70,8.78,-0.51,8.84,-0.37,9.40,-0.30,9.53,1.31,9.39,3.00,8.66,3.51,7.35,3.16,7.45
2008-04-25 05:00,-7.80,8.07,-6.11,7.33,-8.81,9.65,-12.11,10.20,-11.23,7.65,-12.13,8.21,-10.97,9.20,-9.71,10.21,-7.33,9.26,-5.71,5.68,-5.79,3.56,-4.13,1.87,-2.84,1.43,-3.04,-0.30,-4.24,-1.19,-3.63,-1.11,-3.54,-1.08,-3.85,-0.76,-5.22,1.33,-3.27,3.50,-2.17,1.95
2008-04-25 06:00,-12.56,1.07,-11.19,-2.06,-11.22,4.20,-14.35,7.95,-14.17,8.74,-12.65,8.89,-11.09,9.26,-9.58,10.14,-9.17,10.16,-9.80,9.13,-9.61,6.47,-7.77,5.57,-6.26,4.05,-6.38,3.07,-6.14,2.30,-6.83,1.47,-6.73,1.50,-6.61,1.43,-6.12,0.85,-6.55,1.24,-6.88,1.98
2008-04-25 07:00,-16.69,-3.22,-17.63,-1.52,-19.45,4.09,-18.79,3.67,-15.66,5.04,-14.21,6.11,-12.99,6.90,-11.44,5.60,-11.53,4.53,-11.16,4.01,-11.41,2.78,-10.06,1.42,-8.70,1.10,-9.09,-0.37,-9.04,-0.88,-8.80,-1.65,-8.37,-2.04,-7.97,-1.29,-7.85,-0.31,-7.46,-1.24,-6.63,-0.88
2008-04-25 08:00,-19.12,-13.06,-20.23,-14.55,-20.71,-6.12,-17.62,-4.97,-13.48,-3.81,-11.74,-2.65,-12.43,-1.08,-11.20,0.03,-10.61,-0.53,-10.16,-1.64,-11.66,-3.25,-12.87,-4.77,-12.61,-5.95,-10.90,-8.14,-10.52,-8.34,-9.52,-7.51,-9.30,-7.55,-7.64,-8.19,-7.67,-8.10,-6.35,-7.27,-4.34,-5.30
2008-04-25 09:00,-14.23,-9.89,-14.23,-12.61,-12.38,-23.13,-12.05,-22.51,-14.01,-16.41,-11.82,-16.06,-10.33,-14.45,-8.84,-13.16,-9.08,-13.75,-9.42,-11.25,-9.07,-9.67,-8.45,-10.32,-7.80,-9.71,-6.44,-9.39,-5.90,-8.39,-5.71,-8.33,-4.71,-9.91,-4.43,-10.14,-4.13,-9.42,-5.63,-9.98,-4.92,-10.60
2008-04-25 10:00,-8.59,-3.04,-3.98,-8.54,-0.27,-13.47,0.39,-14.62,0.80,-13.56,-0.84,-10.92,-2.44,-7.75,-2.90,-5.91,-1.64,-6.25,-1.06,-7.12,-0.40,-8.28,0.54,-9.98,1.52,-12.50,2.20,-13.34,2.68,-14.24,3.62,-15.94,4.10,-14.43,4.37,-13.62,4.17,-12.95,4.11,-12.76,5.69,-11.44
2008-04-25 11:00,-12.00,0.93,-11.21,-3.01,-7.38,-9.37,-7.40,-12.40,-6.66,-9.67,-7.52,-4.81,-8.88,-1.04,-7.14,-2.29,-4.55,-2.23,-3.80,-1.27,-4.11,-2.30,-4.71,-3.74,-2.24,-4.66,-0.56,-7.39,2.27,-11.54,5.53,-12.95,7.19,-12.23,6.67,-9.15,4.77,-7.74,4.17,-6.46,2.95,-3.49
2008-04-25 12:00,-14.58,1.19,-14.24,-1.32,-12.53,-2.47,-10.25,-2.72,-7.62,-1.07,-5.55,0.71,-2.36,-1.87,1.04,-2.71,0.94,-1.70,1.20,-1.20,0.27,0.50,0.56,0.90,0.18,-0.57,-0.37,-3.25,-0.99,-6.68,-0.00,-12.65,0.25,-14.15,1.60,-8.30,3.40,-7.01,4.51,-5.52,3.37,-3.15
2008-04-25 13:00,-14.39,8.77,-14.94,4.74,-14.23,3.80,-10.22,2.31,-5.37,4.22,-4.96,7.68,-3.10,7.73,0.78,3.27,3.04,-0.01,4.66,0.48,4.91,1.71,5.00,2.78,4.20,3.69,2.90,3.19,2.18,3.49,0.21,3.41,-0.78,4.26,-0.45,4.88,-0.44,5.20,1.39,2.62,1.99,1.03
2008-04-25 14:00,-13.72,2.81,-12.58,2.85,-11.14,1.20,-9.79,4.33,-8.25,9.19,-3.68,8.60,1.27,6.45,4.38,3.12,6.46,0.09,6.78,-0.64,7.39,-0.56,6.56,0.44,5.88,2.32,3.41,2.19,1.92,2.26,0.24,3.32,1.20,2.25,4.02,0.18,4.98,-1.93,5.71,-1.91,4.72,-2.11
2008-04-25 15:00,-15.13,7.09,-12.34,7.52,-10.29,8.36,-8.77,11.23,-4.45,9.10,-1.57,6.84,0.62,3.43,1.09,1.90,2.51,3.07,3.40,5.64,4.58,5.90,5.44,5.11,6.43,5.31,7.60,6.61,8.45,5.20,7.92,3.15,8.47,-0.34,9.18,-2.32,9.86,-2.84,8.50,-1.79,6.12,-0.53
2008-04-25 16:00,-16.38,10.15,-13.11,8.33,-10.22,7.44,-10.55,10.89,-8.85,10.47,-7.28,7.39,-3.59,1.83,-2.83,-0.66,-3.99,1.08,-3.82,3.95,-3.73,5.03,-3.60,5.28,-2.60,6.11,-1.51,6.65,-0.64,6.18,0.64,5.42,2.19,5.16,4.07,4.48,6.21,3.99,4.52,4.73,3.27,5.71
2008-04-25 17:00,-20.42,12.06,-14.72,9.51,-10.27,6.90,-11.55,9.75,-10.13,11.23,-10.19,9.75,-11.38,9.17,-11.22,5.56,-9.97,1.14,-7.53,-2.41,-6.11,-0.19,-4.75,2.21,-3.68,3.48,-1.35,3.04,-0.08,1.96,0.67,2.61,0.67,2.92,0.55,2.99,0.99,2.92,0.66,2.29,0.06,1.17
2008-04-25 18:00,-19.17,4.91,-15.86,3.31,-12.02,-0.02,-14.64,1.70,-14.00,0.64,-14.13,0.39,-14.76,-2.00,-13.92,-3.73,-13.68,-5.54,-11.73,-3.38,-9.70,0.59,-8.00,0.17,-4.10,-0.62,-2.61,-0.69,-2.42,0.72,-2.25,1.20,-2.31,1.39,-1.98,0.33,-1.64,1.27,-1.09,0.82,-2.24,-1.21
2008-04-25 19:00,-21.29,4.99,-15.19,2.15,-9.84,0.02,-14.79,-0.86,-14.99,-2.28,-15.33,-2.18,-16.52,-1.39,-18.00,-1.32,-17.89,-3.06,-14.57,-3.30,-11.83,0.04,-8.97,-0.76,-7.81,1.59,-5.94,0.28,-3.48,-1.27,-1.66,-1.76,-1.22,-1.84,-0.84,-2.04,-0.76,0.08,0.07,0.44,0.76,-1.13